• In Russia
  • List of Countries
  • For 7 days
  • Water Temperature
  • Satellite Maps
  • Weather Map
  • Weather Widgets
  • user-avatar
    Login

    Hourly Weather Ermolovichi

    Today, 21 March, Thursday

    Time Temperature Precipitation Wind Pressure Humidity
    00:00 0°C° 0 mm 4 mps 752 mmHg 72%
    01:00 0°C° 0 mm 4 mps 751 mmHg 73%
    02:00 0°C° 0 mm 3 mps 751 mmHg 77%
    03:00 -1°C° 0.5 mm 4 mps 750 mmHg 79%
    04:00 -1°C° 0.5 mm 4 mps 750 mmHg 80%
    05:00 0°C° 0.5 mm 5 mps 749 mmHg 82%
    06:00 0°C° 0 mm 5 mps 750 mmHg 83%
    07:00 0°C° 0 mm 5 mps 750 mmHg 85%
    08:00 +1°C° 0 mm 5 mps 750 mmHg 85%
    09:00 +1°C° 0 mm 5 mps 750 mmHg 82%
    10:00 +2°C° 0 mm 5 mps 750 mmHg 79%
    11:00 +2°C° 0 mm 5 mps 751 mmHg 75%
    12:00 +3°C° 0 mm 5 mps 751 mmHg 70%
    13:00 +6°C° 0 mm 5 mps 751 mmHg 64%
    14:00 +6°C° 0 mm 5 mps 751 mmHg 60%
    15:00 +6°C° 0 mm 4 mps 751 mmHg 62%
    16:00 +7°C° 0 mm 3 mps 751 mmHg 63%
    17:00 +7°C° 0 mm 2 mps 750 mmHg 64%
    18:00 +5°C° 0 mm 3 mps 750 mmHg 68%
    19:00 +5°C° 0 mm 3 mps 750 mmHg 71%
    20:00 +4°C° 0 mm 3 mps 750 mmHg 75%
    21:00 +4°C° 0.1 mm 3 mps 750 mmHg 77%
    22:00 +4°C° 0.1 mm 3 mps 749 mmHg 80%
    23:00 +3°C° 0.1 mm 4 mps 749 mmHg 82%

    Tomorrow, 22 March, Friday

    Time Temperature Precipitation Wind Pressure Humidity
    00:00 +4°C° 0.5 mm 4 mps 748 mmHg 85%
    01:00 +3°C° 0.5 mm 5 mps 748 mmHg 87%
    02:00 +3°C° 0.5 mm 6 mps 747 mmHg 89%
    03:00 +4°C° 0.6 mm 6 mps 746 mmHg 90%
    04:00 +4°C° 0.6 mm 6 mps 746 mmHg 90%
    05:00 +5°C° 0.6 mm 6 mps 745 mmHg 91%
    06:00 +5°C° 0.1 mm 7 mps 745 mmHg 87%
    07:00 +5°C° 0.1 mm 8 mps 745 mmHg 83%
    08:00 +5°C° 0.1 mm 9 mps 745 mmHg 80%
    09:00 +5°C° 0.1 mm 9 mps 746 mmHg 70%
    10:00 +5°C° 0.1 mm 10 mps 747 mmHg 61%
    11:00 +3°C° 0.1 mm 11 mps 747 mmHg 51%
    12:00 +3°C° 0 mm 11 mps 748 mmHg 49%
    13:00 +3°C° 0 mm 11 mps 748 mmHg 46%
    14:00 +3°C° 0 mm 10 mps 749 mmHg 44%
    15:00 +3°C° 0 mm 10 mps 749 mmHg 45%
    16:00 +2°C° 0 mm 9 mps 749 mmHg 46%
    17:00 +2°C° 0 mm 8 mps 749 mmHg 48%
    18:00 +1°C° 0 mm 8 mps 749 mmHg 51%
    19:00 0°C° 0 mm 7 mps 750 mmHg 54%
    20:00 -1°C° 0 mm 7 mps 750 mmHg 58%
    21:00 -1°C° 0 mm 7 mps 750 mmHg 59%
    22:00 -2°C° 0 mm 7 mps 750 mmHg 61%
    23:00 -3°C° 0 mm 7 mps 750 mmHg 62%

    Day after tomorrow, 23 March, Saturday

    Time Temperature Precipitation Wind Pressure Humidity
    00:00 -3°C° 0 mm 7 mps 751 mmHg 65%
    01:00 -3°C° 0 mm 7 mps 751 mmHg 67%
    02:00 -4°C° 0 mm 7 mps 751 mmHg 69%
    03:00 -4°C° 0 mm 6 mps 751 mmHg 71%
    04:00 -4°C° 0 mm 6 mps 751 mmHg 72%
    05:00 -4°C° 0 mm 6 mps 751 mmHg 74%
    06:00 -3°C° 0 mm 6 mps 751 mmHg 73%
    07:00 -3°C° 0 mm 6 mps 752 mmHg 72%
    08:00 -3°C° 0 mm 6 mps 752 mmHg 71%
    09:00 0°C° 0 mm 5 mps 752 mmHg 67%
    10:00 +1°C° 0 mm 5 mps 752 mmHg 64%
    11:00 +3°C° 0 mm 4 mps 752 mmHg 61%
    12:00 +3°C° 0 mm 4 mps 752 mmHg 59%
    13:00 +4°C° 0 mm 3 mps 752 mmHg 56%
    14:00 +6°C° 0 mm 2 mps 752 mmHg 54%
    15:00 +6°C° 0 mm 2 mps 751 mmHg 56%
    16:00 +7°C° 0 mm 1 mps 751 mmHg 57%
    17:00 +7°C° 0 mm 1 mps 751 mmHg 59%
    18:00 +5°C° 0 mm 1 mps 750 mmHg 62%
    19:00 +4°C° 0 mm 1 mps 750 mmHg 65%
    20:00 +3°C° 0 mm 1 mps 750 mmHg 69%
    21:00 +2°C° 0 mm 2 mps 750 mmHg 70%
    22:00 0°C° 0 mm 3 mps 749 mmHg 72%
    23:00 0°C° 0 mm 3 mps 748 mmHg 74%

    24 March, Sunday

    Time Temperature Precipitation Wind Pressure Humidity
    00:00 0°C° 0.2 mm 3 mps 748 mmHg 72%
    01:00 0°C° 0.2 mm 4 mps 747 mmHg 70%
    02:00 0°C° 0.2 mm 4 mps 747 mmHg 68%
    03:00 0°C° 0.8 mm 4 mps 746 mmHg 72%
    04:00 0°C° 0.8 mm 4 mps 746 mmHg 77%
    05:00 0°C° 0.8 mm 4 mps 745 mmHg 81%
    06:00 0°C° 0 mm 4 mps 745 mmHg 82%
    07:00 +1°C° 0 mm 4 mps 746 mmHg 83%
    08:00 +2°C° 0 mm 5 mps 746 mmHg 84%
    09:00 +2°C° 0 mm 5 mps 746 mmHg 76%
    10:00 +3°C° 0 mm 6 mps 746 mmHg 67%
    11:00 +4°C° 0 mm 6 mps 746 mmHg 59%
    12:00 +4°C° 0 mm 6 mps 746 mmHg 54%
    13:00 +5°C° 0 mm 6 mps 746 mmHg 50%
    14:00 +5°C° 0 mm 7 mps 745 mmHg 45%
    15:00 +5°C° 0 mm 6 mps 745 mmHg 48%
    16:00 +5°C° 0 mm 5 mps 745 mmHg 51%
    17:00 +5°C° 0 mm 4 mps 745 mmHg 54%
    18:00 +4°C° 0 mm 4 mps 745 mmHg 57%
    19:00 +3°C° 0 mm 4 mps 745 mmHg 61%
    20:00 +1°C° 0 mm 4 mps 745 mmHg 64%
    21:00 0°C° 0 mm 4 mps 745 mmHg 67%
    22:00 -1°C° 0 mm 4 mps 745 mmHg 69%
    23:00 -1°C° 0 mm 4 mps 746 mmHg 72%

    25 March, Monday

    Time Temperature Precipitation Wind Pressure Humidity
    00:00 -2°C° 0 mm 4 mps 746 mmHg 71%
    01:00 -3°C° 0 mm 4 mps 746 mmHg 70%
    02:00 -3°C° 0 mm 4 mps 746 mmHg 69%
    03:00 -2°C° 0 mm 3 mps 746 mmHg 70%
    04:00 -4°C° 0 mm 3 mps 746 mmHg 71%
    05:00 -4°C° 0 mm 3 mps 746 mmHg 71%
    06:00 -2°C° 0 mm 3 mps 746 mmHg 67%
    07:00 -2°C° 0 mm 3 mps 746 mmHg 62%
    08:00 -1°C° 0 mm 3 mps 746 mmHg 57%
    09:00 0°C° 0 mm 3 mps 746 mmHg 52%
    10:00 +2°C° 0 mm 3 mps 746 mmHg 47%
    11:00 +3°C° 0 mm 3 mps 746 mmHg 41%
    12:00 +4°C° 0 mm 3 mps 745 mmHg 42%
    13:00 +4°C° 0 mm 4 mps 745 mmHg 42%
    14:00 +5°C° 0 mm 4 mps 744 mmHg 42%
    15:00 +4°C° 0 mm 4 mps 744 mmHg 45%
    16:00 +4°C° 0 mm 3 mps 744 mmHg 48%
    17:00 +4°C° 0 mm 3 mps 743 mmHg 51%
    18:00 +2°C° 0 mm 3 mps 743 mmHg 55%
    19:00 +1°C° 0 mm 3 mps 743 mmHg 59%
    20:00 0°C° 0 mm 3 mps 743 mmHg 64%
    21:00 0°C° 0 mm 3 mps 742 mmHg 64%
    22:00 -1°C° 0 mm 3 mps 742 mmHg 65%
    23:00 -1°C° 0 mm 3 mps 742 mmHg 66%

    26 March, Tuesday

    Time Temperature Precipitation Wind Pressure Humidity
    00:00 -1°C° 0 mm 2 mps 742 mmHg 67%
    01:00 -1°C° 0 mm 2 mps 742 mmHg 68%
    02:00 -1°C° 0 mm 2 mps 742 mmHg 69%
    03:00 +1°C° 0 mm 1 mps 742 mmHg 71%
    04:00 +1°C° 0 mm 1 mps 742 mmHg 72%
    05:00 0°C° 0 mm 0 mps 742 mmHg 74%
    06:00 +1°C° 0 mm 1 mps 743 mmHg 72%
    07:00 +2°C° 0 mm 1 mps 743 mmHg 70%
    08:00 +3°C° 0 mm 1 mps 744 mmHg 68%
    09:00 +3°C° 0 mm 2 mps 744 mmHg 66%
    10:00 +3°C° 0 mm 3 mps 745 mmHg 64%
    11:00 +4°C° 0 mm 4 mps 745 mmHg 63%
    12:00 +5°C° 0 mm 4 mps 746 mmHg 56%
    13:00 +5°C° 0 mm 4 mps 746 mmHg 49%
    14:00 +5°C° 0 mm 3 mps 746 mmHg 42%
    15:00 +5°C° 0 mm 3 mps 746 mmHg 43%
    16:00 +5°C° 0 mm 3 mps 746 mmHg 44%
    17:00 +5°C° 0 mm 2 mps 745 mmHg 45%
    18:00 +3°C° 0 mm 3 mps 746 mmHg 50%
    19:00 +2°C° 0 mm 3 mps 746 mmHg 54%
    20:00 0°C° 0 mm 4 mps 746 mmHg 59%
    21:00 0°C° 0 mm 4 mps 745 mmHg 62%
    22:00 0°C° 0 mm 4 mps 745 mmHg 65%
    23:00 -1°C° 0 mm 4 mps 745 mmHg 67%
    Show more